Other Public Products
Issued by NWS Charleston, SC

Current Version | Previous Version | Graphics & Text | Print | Product List | Glossary On
Versions: 1 2 3 4 5 6 7 8 9 10 11 12 13 14 15 16 17 18 19 20 21 22 23 24 25 26 27 28 29 30 31 32 33 34 35 36 37 38 39 40 41 42 43 44 45 46 47 48 49 50
000
FPUS82 KCHS 281227
OPUCHS

TEST...KCHS/KSAV Gateway Observations...TEST
National Weather Service Charleston SC
800 AM EDT WED JUN 28 2017

NOTE: "fair" indicates few or no clouds below 12,000 feet with no
significant weather and/or obstructions to visibility.

SCZ050-WAZ558-NCZ071-TXZ119-213-PAZ071-DCZ001-FLZ074-172-MI076-
NYZ176-178-MAZ016-IL014-TNZ027-NJZ106-GAZ044-MD014-281300-

...Gateway Observations for Charleston International...

CITY           SKY/WX    TMP DP  RH WIND       PRES   REMARKS
Chas Airport   PTSUNNY   73  64  73 NE9       30.13R
6HR MIN TEMP:  68; 6HR MAX TEMP:  73;

Seattle        MOCLDY    55  50  83 SW6       30.01R
6HR MIN TEMP:  54; 6HR MAX TEMP:  63;

Charlotte      MOSUNNY   65  56  72 CALM      30.19R
6HR MIN TEMP:  56; 6HR MAX TEMP:  66;

Dallas DFW     PTCLDY    75  71  87 S8        29.94R
6HR MIN TEMP:  73; 6HR MAX TEMP:  78;

Dallas Love    PTCLDY    74  70  87 S9        29.95S
6HR MIN TEMP:  74; 6HR MAX TEMP:  78;

Philladelphia  MOSUNNY   66  49  54 NW12      30.15R
6HR MIN TEMP:  62; 6HR MAX TEMP:  66;

Wash National  MOSUNNY   68  51  54 W5        30.20R
6HR MIN TEMP:  61; 6HR MAX TEMP:  68;

Baltimore      MOSUNNY   65  52  62 NW5       30.17R
6HR MIN TEMP:  51; 6HR MAX TEMP:  65;

Miami          MOSUNNY   84  76  76 S3        30.01R HX  93
6HR MIN TEMP:  78; 6HR MAX TEMP:  84;

Detroit        MOSUNNY   59  50  72 S6        30.12R
6HR MIN TEMP:  51; 6HR MAX TEMP:  59;

Newark         MOSUNNY   65  51  60 NW12      30.11R
6HR MIN TEMP:  58; 6HR MAX TEMP:  65;

Laguardia      MOSUNNY   65  54  67 NW13      30.09R
6HR MIN TEMP:  64; 6HR MAX TEMP:  67;

J F K          MOSUNNY   67  52  58 NW13      30.11R
6HR MIN TEMP:  63; 6HR MAX TEMP:  67;

Boston Logan   SUNNY     63  52  67 W14G21    30.01F
6HR MIN TEMP:  58; 6HR MAX TEMP:  63;

Ft. Lauderdale MOSUNNY   82  76  81 CALM      30.00R
6HR MIN TEMP:  79; 6HR MAX TEMP:  82;

Chicago O`Hare CLOUDY    65  48  54 S12       29.97F
6HR MIN TEMP:  58; 6HR MAX TEMP:  65;

Chicago Midway CLOUDY    66  48  52 S13       29.98F
6HR MIN TEMP:  63; 6HR MAX TEMP:  66;

Houston Bush   CLOUDY    75  72  90 NE9       29.92R
6HR MIN TEMP:  74; 6HR MAX TEMP:  76;

Houston Hobby  MOCLDY    76  72  87 NE7       29.90S
6HR MIN TEMP:  75; 6HR MAX TEMP:  79; 6HR PCP:  0.06;

Nashville      MOSUNNY   65  58  78 E5        30.16R
6HR MIN TEMP:  59; 6HR MAX TEMP:  67;

Atlanta        PTSUNNY   69  58  67 E8        30.14R
6HR MIN TEMP:  66; 6HR MAX TEMP:  71;


$$

GAZ044-118-TXZ119-213-NCZ071-DCZ001-MDZ014-506-PAZ021-071-NJZ106-
NYZ176-178-MAZ106-OHZ011-021-055-MIZ076-KYZ091-ILZ014-INZ047-
MNZ060-ONZ431-281300-

...Gateway Observations for Savannah International...

CITY           SKY/WX    TMP DP  RH WIND       PRES   REMARKS
Savannah Arpt  PTSUNNY   74  69  85 NE9       30.12R
6HR MIN TEMP:  71; 6HR MAX TEMP:  74;

Atlanta        PTSUNNY   69  58  67 E8        30.14R
6HR MIN TEMP:  66; 6HR MAX TEMP:  71;

Charlotte      MOSUNNY   65  56  72 CALM      30.19R
6HR MIN TEMP:  56; 6HR MAX TEMP:  66;

Dallas DFW     PTCLDY    75  71  87 S8        29.94R
6HR MIN TEMP:  73; 6HR MAX TEMP:  78;

Houston Bush   CLOUDY    75  72  90 NE9       29.92R
6HR MIN TEMP:  74; 6HR MAX TEMP:  76;

Wash National  MOSUNNY   68  51  54 W5        30.20R
6HR MIN TEMP:  61; 6HR MAX TEMP:  68;

Wash Dulles    MOSUNNY   62  51  67 S5        30.20R
6HR MIN TEMP:  50; 6HR MAX TEMP:  62;

Baltimore      MOSUNNY   65  52  62 NW5       30.17R
6HR MIN TEMP:  51; 6HR MAX TEMP:  65;

Philadelphia   MOSUNNY   66  49  54 NW12      30.15R
6HR MIN TEMP:  62; 6HR MAX TEMP:  66;

Newark         MOSUNNY   65  51  60 NW12      30.11R
6HR MIN TEMP:  58; 6HR MAX TEMP:  65;

Laguardia      MOSUNNY   65  54  67 NW13      30.09R
6HR MIN TEMP:  64; 6HR MAX TEMP:  67;

J F K          MOSUNNY   67  52  58 NW13      30.11R
6HR MIN TEMP:  63; 6HR MAX TEMP:  67;

Boston         SUNNY     63  52  67 W14G21    30.01F
6HR MIN TEMP:  58; 6HR MAX TEMP:  63;

Pittsburg      MOSUNNY   55  50  83 CALM      30.17R
6HR MIN TEMP:  49; 6HR MAX TEMP:  55;

Akron          MOSUNNY   59  48  67 SW6       30.16R
6HR MIN TEMP:  51; 6HR MAX TEMP:  59;

Cleveland      SUNNY     62  49  62 SW8       30.16R
6HR MIN TEMP:  57; 6HR MAX TEMP:  62;

Cincinnati     PTSUNNY   63  52  67 CALM      30.16S
6HR MIN TEMP:  52; 6HR MAX TEMP:  63;

Columbus       SUNNY     58  53  84 CALM      30.18S
Detroit        MOSUNNY   59  50  72 S6        30.12R
6HR MIN TEMP:  51; 6HR MAX TEMP:  59;

Chicago O`Hare CLOUDY    65  48  54 S12       29.97F
6HR MIN TEMP:  58; 6HR MAX TEMP:  65;

Minneapolis    LGT RAIN  63  60  90 S16G22    29.64R
6HR MIN TEMP:  61; 6HR MAX TEMP:  68; 6HR PCP:  0.56;

Indianapolis   CLOUDY    60  51  72 SE10      30.10F
6HR MIN TEMP:  55; 6HR MAX TEMP:  61;

Toronto Canada SUNNY     61  52  72 W8        30.05S

$$




USA.gov is the U.S. government's official web portal to all federal, state and local government web resources and services.